Fredericksburg, VA

7:19 PM EDT on April 26, 2018 (GMT -0400)
Shannon

Weather History for KEZF - December, 2013

Change the Weather History Date:

Saturday, December 7, 2013

  Actual Average (KNYG) Record (KNYG)
Temperature  
Mean Temperature 38 °F -  
Max Temperature 45 °F 47 °F 80 °F (1998)
Min Temperature 31 °F 32 °F 14 °F (2002)
Degree Days  
Heating Degree Days 27    
Moisture  
Dew Point 33 °F    
Average Humidity 78    
Maximum Humidity 100    
Minimum Humidity 57    
Precipitation  
Precipitation 0.23 in - - ()
Sea Level Pressure  
Sea Level Pressure 30.37 in    
Wind  
Wind Speed 9 mph (North)    
Max Wind Speed 14 mph    
Max Gust Speed 24 mph    
Visibility 10 miles    
Events Rain    
Averages and records for this station are not official NWS values.
T = Trace of Precipitation, MM = Missing Value Source: NWS Daily Summary

Daily Weather History Graph

Daily Weather History Graph

Search for Another Location

Airport or City:

Astronomy

Dec. 07, 2013 Rise Set
Actual Time 7:13 AM EST 4:49 PM EST
Civil Twilight 6:43 AM EST 5:18 PM EST
Nautical Twilight 6:11 AM EST 5:51 PM EST
Astronomical Twilight 5:38 AM EST 6:23 PM EST
Moon 11:00 AM EST (12/7) 10:25 PM EST (12/7)
Length of Visible Light 10h 34m
Length of Day
9h 35m
Waxing Crescent, 29% of the Moon is Illuminated
Dec 7
Waxing Crescent
Dec 9
First Quarter
Dec 17
Full
Dec 25
Last Quarter
Jan 1
New

Hourly Weather History & Observations

Time (EST) Temp. Windchill Dew Point Humidity Pressure Visibility Wind Dir Wind Speed Gust Speed Precip Events Conditions
12:15 AM 42.4 °F 36.1 °F 42.4 °F 100% 30.14 in 1.5 mi North 11.5 mph 18.4 mph 0.07 in Rain Light Rain
12:35 AM 41.9 °F 38.2 °F 41.9 °F 100% 30.14 in 10.0 mi North 5.8 mph - 0.07 in Rain Light Rain
12:55 AM 41.4 °F 35.2 °F 41.4 °F 100% 30.13 in 5.0 mi North 10.4 mph 17.3 mph 0.10 in Rain Heavy Rain
1:15 AM 41.0 °F 37.1 °F 41.0 °F 100% 30.12 in 7.0 mi NNE 5.8 mph - 0.02 in Rain Rain
1:35 AM 41.0 °F 36.4 °F 41.0 °F 100% 30.15 in 5.0 mi North 6.9 mph - 0.05 in Rain Rain
1:55 AM 40.5 °F 34.1 °F 40.5 °F 100% 30.15 in 10.0 mi NNW 10.4 mph 16.1 mph 0.07 in Rain Light Rain
2:15 AM 40.1 °F 34.7 °F 40.1 °F 100% 30.19 in 7.0 mi NNW 8.1 mph 18.4 mph 0.01 in Rain Rain
2:30 AM 39.7 °F 33.2 °F 39.7 °F 100% 30.18 in 7.0 mi North 10.4 mph - 0.03 in Rain Rain
2:55 AM 39.2 °F 32.0 °F 39.2 °F 100% 30.20 in 7.0 mi North 11.5 mph 16.1 mph 0.06 in Rain Light Rain
3:15 AM 39.4 °F 33.2 °F 39.4 °F 100% 30.21 in 10.0 mi North 9.2 mph - N/A   Light Drizzle
3:35 AM 39.6 °F 33.5 °F 39.2 °F 99% 30.21 in 10.0 mi NNW 9.2 mph - N/A   Overcast
3:55 AM 39.6 °F 32.5 °F 39.0 °F 98% 30.22 in 10.0 mi North 11.5 mph 16.1 mph N/A   Overcast
4:15 AM 39.4 °F 33.2 °F 38.8 °F 98% 30.22 in 10.0 mi North 9.2 mph - N/A   Overcast
4:35 AM 39.6 °F 37.4 °F 38.7 °F 97% 30.24 in 10.0 mi North 3.5 mph - N/A   Overcast
4:55 AM 39.4 °F 34.5 °F 38.8 °F 98% 30.24 in 10.0 mi North 6.9 mph - N/A   Overcast
5:15 AM 39.6 °F 33.5 °F 38.5 °F 96% 30.25 in 10.0 mi North 9.2 mph - N/A   Overcast
5:35 AM 39.6 °F 33.0 °F 38.3 °F 95% 30.27 in 10.0 mi North 10.4 mph - N/A   Overcast
5:55 AM 39.6 °F 34.7 °F 38.1 °F 95% 30.27 in 10.0 mi North 6.9 mph - N/A   Overcast
6:15 AM 39.4 °F 34.5 °F 37.9 °F 95% 30.27 in 10.0 mi North 6.9 mph - N/A   Overcast
6:35 AM 39.4 °F 33.2 °F 37.6 °F 93% 30.28 in 10.0 mi North 9.2 mph - N/A   Overcast
6:55 AM 39.4 °F 33.2 °F 37.6 °F 93% 30.30 in 10.0 mi North 9.2 mph - N/A   Overcast
7:15 AM 39.6 °F 32.1 °F 37.4 °F 92% 30.31 in 10.0 mi North 12.7 mph - N/A   Overcast
7:35 AM 39.4 °F 32.7 °F 37.2 °F 92% 30.32 in 10.0 mi NNW 10.4 mph 16.1 mph N/A   Overcast
7:55 AM 39.6 °F 34.0 °F 36.7 °F 89% 30.33 in 10.0 mi North 8.1 mph - N/A   Overcast
8:15 AM 39.6 °F 34.0 °F 36.5 °F 89% 30.35 in 10.0 mi North 8.1 mph 17.3 mph N/A   Overcast
8:35 AM 40.1 °F 35.3 °F 36.5 °F 87% 30.36 in 10.0 mi NNW 6.9 mph - N/A   Overcast
8:55 AM 40.1 °F 36.1 °F 35.8 °F 85% 30.37 in 10.0 mi North 5.8 mph - N/A   Mostly Cloudy
9:15 AM 40.3 °F 33.9 °F 34.3 °F 79% 30.38 in 10.0 mi North 10.4 mph - N/A   Scattered Clouds
9:35 AM 40.6 °F 34.3 °F 34.0 °F 77% 30.39 in 10.0 mi North 10.4 mph - N/A   Mostly Cloudy
9:55 AM 41.4 °F 34.3 °F 33.6 °F 74% 30.40 in 10.0 mi NNW 12.7 mph 17.3 mph N/A   Scattered Clouds
10:15 AM 41.9 °F 35.9 °F 32.4 °F 69% 30.40 in 10.0 mi NNW 10.4 mph 20.7 mph N/A   Clear
10:35 AM 42.3 °F 35.1 °F 32.2 °F 67% 30.40 in 10.0 mi North 13.8 mph 18.4 mph N/A   Clear
10:55 AM 42.8 °F 36.6 °F 32.4 °F 67% 30.40 in 10.0 mi NNW 11.5 mph 16.1 mph N/A   Scattered Clouds
11:15 AM 42.8 °F 37.0 °F 32.7 °F 68% 30.40 in 10.0 mi North 10.4 mph - N/A   Mostly Cloudy
11:35 AM 42.4 °F 37.5 °F 32.0 °F 67% 30.40 in 10.0 mi North 8.1 mph - N/A   Overcast
11:55 AM 42.4 °F 37.0 °F 32.0 °F 67% 30.39 in 10.0 mi NNW 9.2 mph 18.4 mph N/A   Overcast
12:15 PM 42.1 °F 35.2 °F 31.6 °F 67% 30.40 in 10.0 mi NNW 12.7 mph 19.6 mph N/A   Overcast
12:35 PM 42.8 °F 36.2 °F 31.6 °F 65% 30.40 in 10.0 mi NNW 12.7 mph 19.6 mph N/A   Overcast
12:55 PM 43.0 °F 37.2 °F 31.6 °F 64% 30.40 in 10.0 mi NNW 10.4 mph 17.3 mph N/A   Overcast
1:15 PM 43.3 °F 37.2 °F 31.3 °F 62% 30.39 in 10.0 mi NNW 11.5 mph 19.6 mph N/A   Scattered Clouds
1:35 PM 44.4 °F 38.2 °F 31.1 °F 60% 30.38 in 10.0 mi North 12.7 mph 24.2 mph N/A   Scattered Clouds
1:55 PM 45.3 °F 40.6 °F 31.6 °F 59% 30.38 in 10.0 mi NW 9.2 mph - N/A   Mostly Cloudy
2:15 PM 45.0 °F 38.5 °F 30.7 °F 57% 30.39 in 10.0 mi North 13.8 mph 19.6 mph N/A   Mostly Cloudy
2:35 PM 43.2 °F 37.4 °F 30.2 °F 60% 30.39 in 10.0 mi NNW 10.4 mph - N/A   Scattered Clouds
2:55 PM 43.9 °F 38.8 °F 30.7 °F 60% 30.39 in 10.0 mi NNE 9.2 mph - N/A   Scattered Clouds
3:15 PM 43.7 °F 37.7 °F 30.4 °F 59% 30.40 in 10.0 mi North 11.5 mph - N/A   Scattered Clouds
3:35 PM 43.2 °F 36.6 °F 29.3 °F 58% 30.40 in 10.0 mi North 12.7 mph 20.7 mph N/A   Clear
3:55 PM 43.3 °F 39.2 °F 30.0 °F 59% 30.41 in 10.0 mi North 6.9 mph - N/A   Scattered Clouds
4:15 PM 42.8 °F 38.6 °F 29.8 °F 60% 30.42 in 10.0 mi North 6.9 mph - N/A   Scattered Clouds
4:35 PM 42.1 °F 36.6 °F 29.1 °F 60% 30.42 in 10.0 mi North 9.2 mph - N/A   Scattered Clouds
4:55 PM 41.7 °F 36.1 °F 28.6 °F 60% 30.43 in 10.0 mi North 9.2 mph - N/A   Clear
5:15 PM 41.0 °F 35.2 °F 28.2 °F 60% 30.44 in 10.0 mi NNW 9.2 mph - N/A   Clear
5:35 PM 40.5 °F 34.6 °F 27.9 °F 61% 30.45 in 10.0 mi NNW 9.2 mph - N/A   Clear
5:55 PM 40.3 °F 37.1 °F 27.7 °F 61% 30.47 in 10.0 mi NNW 4.6 mph - N/A   Clear
6:15 PM 39.9 °F 36.7 °F 27.9 °F 62% 30.48 in 10.0 mi NNW 4.6 mph - N/A   Clear
6:35 PM 39.2 °F 34.2 °F 28.4 °F 65% 30.48 in 10.0 mi NNW 6.9 mph - N/A   Clear
6:55 PM 38.8 °F 33.8 °F 27.5 °F 64% 30.49 in 10.0 mi NNW 6.9 mph - N/A   Clear
7:15 PM 38.7 °F 33.6 °F 27.3 °F 64% 30.50 in 10.0 mi NNW 6.9 mph - N/A   Clear
7:35 PM 37.9 °F 33.5 °F 27.0 °F 65% 30.50 in 10.0 mi NNW 5.8 mph - N/A   Clear
7:55 PM 37.4 °F 33.8 °F 27.0 °F 66% 30.52 in 10.0 mi North 4.6 mph - N/A   Clear
8:15 PM 36.9 °F 32.2 °F 26.6 °F 66% 30.52 in 10.0 mi North 5.8 mph - N/A   Clear
8:35 PM 36.5 °F 33.9 °F 26.8 °F 68% 30.52 in 10.0 mi NNW 3.5 mph - N/A   Clear
8:55 PM 36.0 °F 33.3 °F 27.0 °F 70% 30.53 in 10.0 mi North 3.5 mph - N/A   Clear
9:15 PM 34.7 °F 30.6 °F 27.3 °F 74% 30.53 in 10.0 mi NNW 4.6 mph - N/A   Clear
9:35 PM 34.7 °F - 27.3 °F 74% 30.54 in 10.0 mi Calm Calm - N/A   Clear
9:55 PM 34.0 °F - 27.5 °F 77% 30.54 in 10.0 mi Calm Calm - N/A   Clear
10:15 PM 33.8 °F - 27.3 °F 77% 30.54 in 10.0 mi Calm Calm - N/A   Clear
10:35 PM 33.1 °F - 27.7 °F 81% 30.54 in 10.0 mi Calm Calm - N/A   Clear
10:55 PM 31.1 °F 27.7 °F 28.0 °F 88% 30.53 in 10.0 mi North 3.5 mph - N/A   Clear
11:15 PM 32.0 °F 27.5 °F 27.9 °F 85% 30.53 in 10.0 mi North 4.6 mph - N/A   Clear
11:35 PM 32.2 °F 27.7 °F 27.5 °F 83% 30.54 in 10.0 mi NNW 4.6 mph - N/A   Clear
11:55 PM 32.7 °F 25.0 °F 25.7 °F 75% 30.55 in 10.0 mi North 9.2 mph - N/A   Clear